W0KHZ Weather Reports


time (UTC)temp
F
wind
direction
speed
knots
gust
knots
rain 1hr
in
rain 24hr
in
rain mn
in
humidity
%
barometer
mb
20260505153043 51 311 2.6 7.8 0.00 0.00 0.00 39 1008.2
20260505152521 50 250 2.6 7.0 0.00 0.00 0.00 41 1008.2
20260505152019 51 322 1.7 7.8 0.00 0.00 0.00 39 1008.3
20260505151518 51 311 1.7 6.1 0.00 0.00 0.00 41 1008.1
20260505151035 50 312 1.7 9.6 0.00 0.00 0.00 40 1008.1
20260505150533 50 337 1.7 6.1 0.00 0.00 0.00 40 1008.1
20260505140551 48 308 2.6 7.8 0.00 0.00 0.00 49 1008.4
20260505125023 40 327 0.9 2.6 0.00 0.00 0.00 63 1008.0
20260505124542 40 319 0.9 1.7 0.00 0.00 0.00 64 1008.0
20260505124020 39 317 0.0 0.9 0.00 0.00 0.00 64 1007.7
20260505123518 39 314 0.0 0.9 0.00 0.00 0.00 65 1007.7
20260505123016 39 325 0.9 3.5 0.00 0.00 0.00 65 1007.7
20260505122534 39 310 0.0 2.6 0.00 0.00 0.00 65 1007.6
20260505122032 38 327 0.0 0.9 0.00 0.00 0.00 66 1007.5
20260505121550 38 328 0.0 0.9 0.00 0.00 0.00 66 1007.5
20260505121028 38 327 0.0 2.6 0.00 0.00 0.00 67 1007.3
20260505120527 37 0.0 0.0 0.00 0.00 0.00 68 1007.3
20260505120025 36 0.0 0.0 0.00 0.00 0.00 70 1007.1
20260505115523 36 0.0 0.0 0.00 0.00 0.00 72 1007.1
20260505115042 35 0.0 0.0 0.00 0.00 0.00 73 1006.8
20260505114519 35 0.0 0.0 0.00 0.00 0.00 73 1006.8
20260505114018 34 0.0 0.0 0.00 0.00 0.00 73 1006.6
20260505113516 35 311 0.9 1.7 0.00 0.00 0.00 73 1006.5
20260505113033 34 295 0.9 2.6 0.00 0.00 0.00 73 1006.4
20260505112531 34 295 0.9 1.7 0.00 0.00 0.00 73 1006.3
20260505112030 34 299 0.9 2.6 0.00 0.00 0.00 72 1006.2
20260505111528 35 327 0.9 1.7 0.00 0.00 0.00 71 1006.2
20260505111026 36 327 0.0 1.7 0.00 0.00 0.00 70 1006.4
20260505110525 37 327 0.0 0.9 0.00 0.00 0.00 68 1006.3
20260505102027 39 0.0 0.0 0.00 0.00 0.00 62 1005.8
20260505101525 39 0.0 0.0 0.00 0.00 0.00 62 1005.9
20260505101024 39 322 0.0 1.7 0.00 0.00 0.00 62 1005.8
20260505100522 38 327 0.9 1.7 0.00 0.00 0.00 63 1005.7
20260505100021 38 324 0.9 5.2 0.00 0.00 0.00 63 1005.5
20260505095539 39 0.0 0.0 0.00 0.00 0.00 63 1005.5
20260505095017 39 0.0 0.0 0.00 0.00 0.00 62 1005.4
20260505094534 39 0.0 0.0 0.00 0.00 0.00 61 1005.5
20260505094032 40 0.0 0.0 0.00 0.00 0.00 61 1005.4
20260505093531 40 321 0.0 0.9 0.00 0.00 0.00 62 1005.3
20260505093029 40 321 0.9 1.7 0.00 0.00 0.00 61 1005.3
20260505092527 41 0.0 0.0 0.00 0.00 0.00 59 1005.2
20260505092025 41 321 0.0 1.7 0.00 0.00 0.00 58 1005.3
20260505091524 41 321 0.9 1.7 0.00 0.00 0.00 57 1005.1
20260505091022 41 318 0.0 1.7 0.00 0.00 0.00 57 1005.2
20260505090520 42 312 0.0 0.9 0.00 0.00 0.00 57 1005.2
20260505090018 42 313 0.9 2.6 0.00 0.00 0.00 57 1005.1
20260505085517 42 292 0.0 2.6 0.00 0.00 0.00 58 1005.0
20260505085034 41 0.0 0.0 0.00 0.00 0.00 58 1005.0
20260505084532 41 297 0.9 2.6 0.00 0.00 0.00 59 1005.0
20260505084030 41 296 0.9 2.6 0.00 0.00 0.00 60 1004.9
20260505083529 41 302 0.9 3.5 0.00 0.00 0.00 60 1004.7
20260505083027 41 306 0.0 1.7 0.00 0.00 0.00 61 1004.7
20260505082525 40 306 0.0 0.9 0.00 0.00 0.00 62 1004.7
20260505082024 40 0.0 0.0 0.00 0.00 0.00 63 1004.5
20260505081522 40 306 0.0 0.9 0.00 0.00 0.00 64 1004.4
20260505081020 40 0.0 0.0 0.00 0.00 0.00 64 1004.4
20260505080519 40 306 0.0 0.9 0.00 0.00 0.00 62 1004.2
20260505080037 40 0.0 0.0 0.00 0.00 0.00 61 1004.2
20260505075534 40 0.0 0.0 0.00 0.00 0.00 63 1004.3
20260505075032 41 0.0 0.0 0.00 0.00 0.00 63 1004.2
20260505074530 41 0.0 0.0 0.00 0.00 0.00 62 1004.2
20260505074029 41 0.0 0.0 0.00 0.00 0.00 62 1004.1
20260505073527 41 0.0 0.0 0.00 0.00 0.00 62 1004.1
20260505073025 42 0.0 0.0 0.00 0.00 0.00 59 1004.1
20260505072523 43 0.0 0.0 0.00 0.00 0.00 58 1004.1
20260505072022 43 0.0 0.0 0.00 0.00 0.00 55 1004.2
20260505071520 43 0.0 0.0 0.00 0.00 0.00 52 1004.2
20260505071019 43 0.0 0.0 0.00 0.00 0.00 53 1004.1
20260505070517 43 0.0 0.0 0.00 0.00 0.00 54 1004.2
20260505070034 44 0.0 0.0 0.00 0.00 0.00 53 1004.3
20260505065532 44 0.0 0.0 0.00 0.00 0.00 52 1004.2
20260505065030 44 0.0 0.0 0.00 0.00 0.00 51 1004.1
20260505064529 44 0.0 0.0 0.00 0.00 0.00 51 1004.2
20260505064047 44 0.0 0.0 0.00 0.00 0.00 50 1004.3
20260505063525 45 306 0.0 0.9 0.00 0.00 0.00 50 1004.2
20260505063023 45 306 0.0 1.7 0.00 0.00 0.00 50 1004.4
20260505062522 45 306 0.0 0.9 0.00 0.00 0.00 50 1004.3
20260505062020 45 306 0.9 1.7 0.00 0.00 0.00 50 1004.3
20260505061518 45 0.0 0.0 0.00 0.00 0.00 50 1004.4
20260505061016 45 307 0.0 0.9 0.00 0.00 0.00 50 1004.4
20260505060534 45 0.0 0.0 0.00 0.00 0.00 50 1004.5
20260505060032 45 307 0.0 0.9 0.00 0.00 0.00 50 1004.4
20260505055530 46 306 0.9 2.6 0.00 0.00 0.00 50 1004.5
20260505055028 46 307 0.0 0.9 0.00 0.00 0.00 49 1004.5
20260505054527 46 307 0.0 0.9 0.00 0.00 0.00 49 1004.4
20260505054025 46 307 0.0 0.9 0.00 0.00 0.00 49 1004.4
20260505053523 47 307 0.9 1.7 0.00 0.00 0.00 49 1004.3
20260505053022 47 307 0.9 1.7 0.00 0.00 0.00 49 1004.3
20260505052540 47 307 0.9 2.6 0.00 0.00 0.00 48 1004.1
20260505052018 47 305 0.9 1.7 0.00 0.00 0.00 48 1004.1
20260505051517 47 300 0.9 5.2 0.00 0.00 0.00 47 1004.1
20260505051034 48 289 1.7 7.0 0.00 0.00 0.00 47 1004.0
20260505050532 48 299 1.7 7.0 0.00 0.00 0.00 47 1003.9
20260505041533 50 328 2.6 9.6 0.00 0.00 0.00 44 1003.5
20260505041031 50 311 3.5 7.8 0.00 0.00 0.00 44 1003.4
20260505040530 51 324 2.6 6.1 0.00 0.00 0.00 44 1003.2
20260505040028 51 309 3.5 9.6 0.00 0.00 0.00 43 1003.2
20260505035526 51 297 2.6 8.7 0.00 0.00 0.00 44 1003.2
20260505035024 51 320 1.7 5.2 0.00 0.00 0.00 44 1003.3
20260505034523 51 329 2.6 8.7 0.00 0.00 0.00 43 1003.1
20260505034021 51 323 2.6 9.6 0.00 0.00 0.00 43 1002.9
20260505033518 51 319 2.6 8.7 0.00 0.00 0.00 43 1002.9
20260505033016 51 318 1.7 3.5 0.00 0.00 0.00 43 1002.8
20260505032533 51 316 2.6 8.7 0.00 0.00 0.00 43 1002.8
20260505032031 51 322 2.6 7.8 0.00 0.00 0.00 43 1002.7
20260505031529 51 329 2.6 7.8 0.00 0.00 0.00 44 1002.6
20260505031027 52 320 3.5 7.8 0.00 0.00 0.00 45 1002.5
20260505030525 52 316 1.7 5.2 0.00 0.00 0.00 44 1002.6
20260505030043 52 315 3.5 13.0 0.00 0.00 0.00 44 1002.5
20260505025522 53 311 0.9 3.5 0.00 0.00 0.00 44 1002.3
20260505025019 53 310 1.7 6.1 0.00 0.00 0.00 43 1002.1
20260505024517 53 304 2.6 8.7 0.00 0.00 0.00 43 1002.1
20260505024035 54 316 3.5 11.3 0.00 0.00 0.00 43 1002.1
20260505023532 54 317 3.5 8.7 0.00 0.00 0.00 43 1001.8
20260505023030 54 313 4.3 11.3 0.00 0.00 0.00 42 1001.7
20260505022529 54 325 3.5 7.8 0.00 0.00 0.00 42 1001.6
20260505022026 55 317 4.3 13.0 0.00 0.00 0.00 42 1001.5
20260505021523 55 315 4.3 12.2 0.00 0.00 0.00 41 1001.3
20260505021022 55 321 4.3 12.2 0.00 0.00 0.00 42 1001.2
20260505020540 55 318 2.6 7.8 0.00 0.00 0.00 42 1001.1
20260505020018 55 296 1.7 3.5 0.00 0.00 0.00 41 1000.9
20260505015535 56 307 2.6 9.6 0.00 0.00 0.00 41 1000.8
20260505015052 56 326 2.6 13.9 0.00 0.00 0.00 41 1000.7
20260505014530 56 322 5.2 13.0 0.00 0.00 0.00 41 1000.6
20260505014029 57 321 4.3 13.9 0.00 0.00 0.00 40 1000.5
20260505013527 57 329 2.6 11.3 0.00 0.00 0.00 40 1000.4
20260505013024 57 320 4.3 12.2 0.00 0.00 0.00 40 1000.2
20260505012522 57 318 3.5 9.6 0.00 0.00 0.00 39 1000.2
20260505012041 58 321 2.6 5.2 0.00 0.00 0.00 39 999.9
20260505011519 58 328 2.6 6.1 0.00 0.00 0.00 38 999.9
20260505011017 58 316 4.3 9.6 0.00 0.00 0.00 39 999.8
20260505010554 58 305 3.5 11.3 0.00 0.00 0.00 39 999.6
20260505010052 58 312 3.5 11.3 0.00 0.00 0.00 39 999.5
20260505005530 59 321 3.5 7.8 0.00 0.00 0.00 38 999.5
20260505005028 59 341 3.5 8.7 0.00 0.00 0.00 38 999.4
20260505004607 59 333 2.6 8.7 0.00 0.00 0.00 38 999.2
20260505004045 59 330 3.5 7.8 0.00 0.00 0.00 37 999.4
20260505003523 60 326 3.5 12.2 0.00 0.00 0.00 37 999.4
20260505003041 60 319 3.5 11.3 0.00 0.00 0.00 36 999.5
20260505002519 60 326 2.6 6.1 0.00 0.00 0.00 36 999.4
20260505002017 60 318 3.5 11.3 0.00 0.00 0.00 36 999.3
20260505001535 61 323 2.6 7.8 0.00 0.00 0.00 36 999.4
20260505001032 61 322 2.6 6.1 0.00 0.00 0.00 35 999.3
20260505000531 61 316 4.3 14.8 0.00 0.00 0.00 35 999.2
20260505000049 61 327 3.5 12.2 0.00 0.00 0.00 34 999.2
20260504235527 61 315 4.3 9.6 0.00 0.00 0.00 35 999.2
20260504235045 61 318 3.5 11.3 0.00 0.00 0.00 35 999.1
20260504234523 62 312 3.5 6.1 0.00 0.00 0.00 35 999.0
20260504234021 62 325 3.5 11.3 0.00 0.00 0.00 34 999.0
20260504233519 62 335 3.5 11.3 0.00 0.00 0.00 34 998.7
20260504233030 63 322 2.6 8.7 0.00 0.00 0.00 33 998.8
20260504232534 63 320 4.3 8.7 0.00 0.00 0.00 34 998.8
20260504232032 63 319 3.5 12.2 0.00 0.00 0.00 33 998.8
20260504231530 64 314 7.0 19.1 0.00 0.00 0.00 31 998.7
20260504231028 64 326 4.3 14.8 0.00 0.00 0.00 31 998.8
20260504230526 64 309 2.6 7.8 0.00 0.00 0.00 31 998.5
20260504230024 64 323 4.3 13.0 0.00 0.00 0.00 30 998.6
20260504225523 64 303 4.3 13.9 0.00 0.00 0.00 30 998.4
20260504225021 64 313 3.5 12.2 0.00 0.00 0.00 30 998.3
20260504224519 64 299 4.3 12.2 0.00 0.00 0.00 30 998.2
20260504224017 65 314 2.6 13.0 0.00 0.00 0.00 30 998.1
20260504223535 65 317 2.6 9.6 0.00 0.00 0.00 29 998.0
20260504223033 65 318 4.3 16.5 0.00 0.00 0.00 30 997.9
20260504222530 65 311 4.3 18.2 0.00 0.00 0.00 30 997.8
20260504222028 65 329 4.3 14.8 0.00 0.00 0.00 30 997.7
20260504221607 65 322 3.5 9.6 0.00 0.00 0.00 31 997.9
20260504221025 65 308 3.5 13.9 0.00 0.00 0.00 30 997.7
20260504220523 65 311 3.5 8.7 0.00 0.00 0.00 30 997.7
20260504220021 65 316 3.5 12.2 0.00 0.00 0.00 31 997.6
20260504215519 66 315 3.5 11.3 0.00 0.00 0.00 31 997.5
20260504215017 66 303 1.7 7.0 0.00 0.00 0.00 31 997.6
20260504214535 66 331 2.6 11.3 0.00 0.00 0.00 30 997.5
20260504214033 66 331 4.3 13.0 0.00 0.00 0.00 30 997.6
20260504213531 66 304 3.5 13.9 0.00 0.00 0.00 32 997.3
20260504213049 66 318 3.5 9.6 0.00 0.00 0.00 32 997.4
20260504212527 66 304 1.7 7.0 0.00 0.00 0.00 31 997.4
20260504212026 66 328 3.5 9.6 0.00 0.00 0.00 31 997.4
20260504211544 66 313 3.5 7.0 0.00 0.00 0.00 32 997.4
20260504211022 66 317 3.5 7.8 0.00 0.00 0.00 32 997.3
20260504210521 66 331 3.5 11.3 0.00 0.00 0.00 32 997.4
20260504210019 66 313 3.5 13.9 0.00 0.00 0.00 31 997.4
20260504205517 67 334 4.3 16.5 0.00 0.00 0.00 31 997.4
20260504205035 67 318 3.5 8.7 0.00 0.00 0.00 30 997.5
20260504204613 68 337 5.2 13.9 0.00 0.00 0.00 30 997.6
20260504204051 68 313 4.3 12.2 0.00 0.00 0.00 29 997.4
20260504203529 68 297 5.2 14.8 0.00 0.00 0.00 28 997.4
20260504203027 69 332 5.2 13.0 0.00 0.00 0.00 28 997.4
20260504202525 69 328 5.2 13.0 0.00 0.00 0.00 28 997.3
20260504202024 70 314 5.2 13.0 0.00 0.00 0.00 28 996.9
20260504201522 70 315 4.3 15.6 0.00 0.00 0.00 28 997.0
20260504201020 71 303 5.2 13.9 0.00 0.00 0.00 29 996.9
20260504200519 71 306 5.2 14.8 0.00 0.00 0.00 29 996.7
20260504200017 71 312 2.6 13.0 0.00 0.00 0.00 32 996.4
20260504195534 71 310 4.3 14.8 0.00 0.00 0.00 32 996.6
20260504195032 71 329 4.3 13.9 0.00 0.00 0.00 31 996.4
20260504194530 72 309 3.5 9.6 0.00 0.00 0.00 32 996.4
20260504194029 72 240 3.5 13.0 0.00 0.00 0.00 32 996.4
20260504193527 72 330 3.5 7.0 0.00 0.00 0.00 32 996.3
20260504193045 72 311 3.5 12.2 0.00 0.00 0.00 31 996.3
20260504192523 72 306 3.5 12.2 0.00 0.00 0.00 31 996.3
20260504192022 72 304 2.6 11.3 0.00 0.00 0.00 31 996.1
20260504191520 72 299 5.2 15.6 0.00 0.00 0.00 30 996.2
20260504191018 72 311 3.5 13.0 0.00 0.00 0.00 32 996.1
20260504190517 72 336 4.3 13.9 0.00 0.00 0.00 32 996.2
20260504190034 72 314 4.3 13.9 0.00 0.00 0.00 33 996.1
20260504185532 72 311 2.6 7.8 0.00 0.00 0.00 33 995.9
20260504185051 73 260 3.5 11.3 0.00 0.00 0.00 33 996.0
20260504184528 73 261 3.5 9.6 0.00 0.00 0.00 33 996.0
20260504184047 73 276 2.6 12.2 0.00 0.00 0.00 32 995.8
20260504183525 74 270 4.3 11.3 0.00 0.00 0.00 33 995.8
20260504183023 74 307 3.5 11.3 0.00 0.00 0.00 35 995.7
20260504182521 74 235 3.5 9.6 0.00 0.00 0.00 37 995.6
20260504182040 74 272 2.6 9.6 0.00 0.00 0.00 37 995.8
20260504181538 74 303 2.6 7.8 0.00 0.00 0.00 39 995.6
20260504181016 74 317 5.2 12.2 0.00 0.00 0.00 38 995.7
20260504180534 74 317 4.3 15.6 0.00 0.00 0.00 39 995.6
20260504180032 74 254 2.6 7.8 0.00 0.00 0.00 40 995.5
20260504175530 74 247 4.3 13.0 0.00 0.00 0.00 40 995.5
20260504175028 74 230 1.7 7.8 0.00 0.00 0.00 39 995.6
20260504174526 74 314 3.5 8.7 0.00 0.00 0.00 39 995.7
20260504174025 74 214 3.5 8.7 0.00 0.00 0.00 40 995.7
20260504173523 74 313 3.5 8.7 0.00 0.00 0.00 39 995.8
20260504173021 74 319 3.5 20.0 0.00 0.00 0.00 39 995.7
20260504172519 74 303 2.6 8.7 0.00 0.00 0.00 40 995.6
20260504172018 74 271 3.5 7.8 0.00 0.00 0.00 41 995.7
20260504171516 74 314 4.3 13.0 0.00 0.00 0.00 39 995.6
20260504171034 74 314 4.3 13.9 0.00 0.00 0.00 40 995.7
20260504170531 74 317 3.5 12.2 0.00 0.00 0.00 39 995.7